Location: Copeville
(33.0796°N, 96.4155°W)
Time: 19:11:48
(UTC+00:00)

Cosmos 1328 Rocket - Pass Details

Date: 04 July 2022
Orbit: 600 x 627 km, 82.5° (Epoch: 17 August)

Event Time Altitude Azimuth Distance (km) Brightness Sun altitude
Rises 08:39:58 0° 355° (N) 2,899 7.8 -26.1°
Reaches altitude 10° 08:42:13 10° 358° (N) 1,985 6.8 -25.8°
Enters shadow 08:46:30 73° 67° (ENE) 643 3.6 -25.3°
